sat.trackr.live / text

‹ back to catalog

STARLINK-30389

NORAD 57783 · 2023-134N

PAYLOAD ACTIVE UNKNOWN

§ Identity

Operator
Country
US
Launch date
2023-09-04
Launch site
AFETR
Launch vehicle
Mass (kg)
RCS (m²)

Purposes: comms

External: N2YO · Heavens-Above · Gunter

§ Orbital elements

Epoch: 2026-09-20T11:51:32.360256Z

Period
94.27 min
Inclination
43.0056°
Eccentricity
0.0001430
Mean motion
15.27579015 rev/d
Perigee alt
482.1 km
Apogee alt
484.0 km
Semi-major
6,861.2 km
B*
5.1926e-5
RAAN
177.4011°
Arg perigee
267.4098°
Mean anomaly
92.6590°
Rev number
16,926

§ Raw data

STARLINK-303891 57783U 23134N   26263.49412454  .00001167  00000+0  51926-4 0  99962 57783  43.0056 177.4011 0001430 267.4098  92.6590 15.27579015169262

JSON: /api/v1/satellites/57783 · /tle

For live sub-satellite position, see the globe view (requires WebGL).

§ Visibility from observer

Set your observer location to see the next 7 days of passes ≥ 10°. The values pass through the URL so the page stays shareable.

No JS? Fill the form by hand. The geolocation button needs JavaScript.